Location: Makakahi
(40.6833°S, 175.6000°E)
Time: 00:08:47
(UTC+00:00)

FENGYUN 1C DEB - Pass Details

Date: 14 December 2024
Orbit: 812 x 877 km, 98.8° (Epoch: 19 January)

Event Time Altitude Azimuth Distance (km) Brightness Sun altitude
Rises 10:21:38 0° 181° (S) 3,391 ? -21.1°
Reaches altitude 10° 10:24:31 10° 196° (SSW) 2,459 ? -21.3°
Maximum altitude 10:28:28 21° 243° (WSW) 1,807 ? -21.6°
Drops below altitude 10° 10:32:27 10° 290° (WNW) 2,468 ? -22.0°
Sets 10:35:21 0° 305° (NW) 3,406 ? -22.2°
